QPF
0.00 0.00 0.00 0.00 0.00 0.00 0.00 0.00 0.00 0.00 0.00 0.00 0.00 0.00 0.00 0.01 0.01 0.02 0.06 0.15 0.18 0.15 0.21 0.18 0.15 0.10 0.08 0.06 0.05 0.04 0.15 0.22 0.22 0.15 0.08 0.04 0.01 0.00 0.00 0.00 0.00 0.00 0.00
0.00 0.00 0.00 0.00 0.00 0.00 0.00 0.00 0.00 0.00 0.00 0.00 0.00 0.00 0.00 0.00 0.01 0.01 0.01 0.04 0.09 0.14 0.19 0.23 0.23 0.23 0.18 0.08 0.05 0.04 0.10 0.17 0.26 0.33 0.27 0.16 0.06 0.01 0.01 0.00 0.00 0.00 0.00
0.00 0.00 0.00 0.00 0.00 0.00 0.00 0.00 0.00 0.00 0.00 0.00 0.00 0.00 0.00 0.00 0.00 0.00 0.00 0.01 0.05 0.08 0.17 0.24 0.22 0.17 0.12 0.06 0.06 0.05 0.04 0.06 0.11 0.23 0.29 0.21 0.18 0.09 0.03 0.02 0.01 0.00 0.00
0.00 0.00 0.00 0.00 0.00 0.00 0.00 0.00 0.00 0.00 0.00 0.00 0.00 0.00 0.00 0.00 0.00 0.00 0.00 0.00 0.01 0.02 0.06 0.10 0.13 0.11 0.09 0.05 0.03 0.04 0.04 0.04 0.04 0.07 0.13 0.21 0.30 0.24 0.16 0.13 0.10 0.05 0.02
0.01 0.00 0.00 0.00 0.00 0.00 0.00 0.00 0.00 0.00 0.00 0.00 0.00 0.00 0.00 0.00 0.00 0.00 0.00 0.00 0.00 0.01 0.01 0.01 0.02 0.02 0.02 0.02 0.03 0.04 0.06 0.06 0.05 0.05 0.09 0.14 0.21 0.21 0.19 0.21 0.12 0.07 0.06
0.01 0.01 0.01 0.01 0.00 0.00 0.00 0.00 0.00 0.00 0.00 0.00 0.00 0.00 0.00 0.00 0.00 0.00 0.00 0.00 0.00 0.00 0.00 0.00 0.00 0.00 0.00 0.01 0.01 0.02 0.02 0.03 0.04 0.05 0.10 0.18 0.17 0.11 0.19 0.21 0.19 0.19 0.16
0.02 0.02 0.02 0.02 0.01 0.01 0.01 0.01 0.00 0.00 0.00 0.00 0.00 0.00 0.00 0.00 0.00 0.00 0.00 0.00 0.00 0.00 0.00 0.00 0.00 0.00 0.00 0.00 0.02 0.05 0.04 0.02 0.01 0.01 0.06 0.13 0.12 0.06 0.14 0.27 0.24 0.20 0.20
0.04 0.07 0.08 0.07 0.04 0.03 0.03 0.02 0.01 0.01 0.00 0.00 0.00 0.00 0.00 0.00 0.00 0.00 0.00 0.00 0.00 0.00 0.00 0.00 0.00 0.00 0.00 0.00 0.00 0.01 0.02 0.01 0.01 0.01 0.01 0.01 0.01 0.01 0.04 0.12 0.18 0.14 0.13
0.05 0.08 0.12 0.12 0.06 0.03 0.03 0.01 0.01 0.01 0.01 0.00 0.00 0.00 0.00 0.00 0.00 0.00 0.00 0.00 0.00 0.00 0.00 0.00 0.00 0.00 0.00 0.00 0.00 0.00 0.00 0.00 0.00 0.00 0.01 0.01 0.01 0.00 0.00 0.01 0.03 0.07 0.13
0.05 0.08 0.11 0.10 0.06 0.02 0.01 0.00 0.00 0.00 0.00 0.00 0.00 0.00 0.00 0.00 0.00 0.00 0.00 0.00 0.00 0.00 0.00 0.00 0.00 0.00 0.00 0.00 0.00 0.00 0.00 0.00 0.00 0.00 0.00 0.00 0.00 0.00 0.00 0.00 0.00 0.01 0.03
0.07 0.06 0.09 0.10 0.04 0.01 0.00 0.00 0.00 0.00 0.00 0.00 0.00 0.00 0.00 0.00 0.00 0.00 0.00 0.00 0.00 0.00 0.00 0.00 0.00 0.00 0.00 0.00 0.00 0.00 0.00 0.00 0.00 0.00 0.00 0.00 0.00 0.00 0.00 0.00 0.00 0.00 0.00
0.07 0.06 0.06 0.05 0.02 0.02 0.02 0.01 0.00 0.00 0.00 0.00 0.00 0.00 0.00 0.00 0.00 0.00 0.00 0.00 0.00 0.00 0.00 0.00 0.00 0.00 0.00 0.00 0.00 0.00 0.00 0.00 0.00 0.00 0.00 0.00 0.00 0.00 0.00 0.00 0.00 0.00 0.00
0.05 0.05 0.04 0.03 0.02 0.02 0.02 0.03 0.02 0.01 0.01 0.01 0.01 0.00 0.00 0.00 0.00 0.00 0.00 0.00 0.00 0.00 0.00 0.00 0.00 0.00 0.00 0.00 0.00 0.00 0.00 0.00 0.00 0.00 0.00 0.00 0.00 0.00 0.00 0.00 0.00 0.00 0.00
0.04 0.06 0.07 0.04 0.02 0.02 0.01 0.01 0.03 0.04 0.04 0.05 0.04 0.02 0.01 0.01 0.01 0.00 0.00 0.00 0.00 0.00 0.00 0.00 0.00 0.00 0.00 0.00 0.00 0.00 0.00 0.00 0.00 0.00 0.00 0.00 0.00 0.00 0.00 0.00 0.00 0.00 0.00
0.04 0.09 0.14 0.10 0.05 0.03 0.02 0.01 0.02 0.04 0.06 0.07 0.07 0.04 0.01 0.01 0.02 0.01 0.00 0.00 0.00 0.00 0.00 0.00 0.00 0.00 0.00 0.00 0.00 0.00 0.00 0.00 0.00 0.00 0.00 0.00 0.00 0.00 0.00 0.00 0.00 0.00 0.00
0.07 0.06 0.07 0.07 0.07 0.05 0.02 0.01 0.01 0.01 0.01 0.02 0.03 0.03 0.02 0.01 0.01 0.00 0.00 0.00 0.00 0.00 0.00 0.00 0.00 0.00 0.00 0.00 0.00 0.00 0.00 0.00 0.00 0.00 0.00 0.00 0.00 0.00 0.00 0.00 0.00 0.00 0.00
0.02 0.02 0.01 0.02 0.02 0.01 0.01 0.02 0.02 0.01 0.01 0.00 0.00 0.00 0.01 0.00 0.00 0.00 0.00 0.00 0.00 0.00 0.00 0.00 0.00 0.00 0.00 0.00 0.00 0.00 0.00 0.00 0.00 0.00 0.00 0.00 0.00 0.00 0.00 0.00 0.00 0.00 0.00
0.00 0.00 0.01 0.01 0.01 0.01 0.00 0.01 0.01 0.01 0.01 0.00 0.00 0.00 0.00 0.00 0.00 0.00 0.00 0.00 0.00 0.00 0.00 0.00 0.00 0.00 0.00 0.00 0.00 0.00 0.00 0.00 0.00 0.00 0.00 0.00 0.00 0.00 0.00 0.00 0.00 0.00 0.00
0.00 0.00 0.00 0.00 0.00 0.00 0.00 0.00 0.00 0.00 0.00 0.00 0.00 0.00 0.00 0.00 0.00 0.00 0.00 0.00 0.00 0.00 0.00 0.00 0.00 0.00 0.00 0.00 0.00 0.00 0.00 0.00 0.00 0.00 0.00 0.00 0.00 0.00 0.00 0.00 0.00 0.00 0.00
0.00 0.00 0.00 0.00 0.00 0.00 0.00 0.00 0.00 0.00 0.00 0.00 0.00 0.00 0.00 0.00 0.00 0.00 0.00 0.00 0.00 0.00 0.00 0.00 0.00 0.00 0.00 0.00 0.00 0.00 0.00 0.00 0.00 0.00 0.00 0.00 0.00 0.00 0.00 0.00 0.00 0.00 0.00
0.00 0.00 0.00 0.00 0.00 0.00 0.00 0.00 0.00 0.00 0.00 0.00 0.00 0.00 0.00 0.00 0.00 0.00 0.00 0.00 0.00 0.00 0.00 0.00 0.00 0.00 0.00 0.00 0.00 0.00 0.00 0.00 0.00 0.00 0.00 0.00 0.00 0.00 0.00 0.00 0.00 0.00 0.00
0.00 0.00 0.00 0.00 0.00 0.00 0.00 0.00 0.00 0.00 0.00 0.00 0.00 0.00 0.00 0.00 0.00 0.00 0.00 0.00 0.00 0.00 0.00 0.00 0.00 0.00 0.00 0.00 0.00 0.00 0.00 0.00 0.01 0.01 0.01 0.00 0.00 0.00 0.00 0.00 0.00 0.00 0.00
0.00 0.00 0.00 0.00 0.00 0.00 0.00 0.00 0.00 0.00 0.00 0.00 0.00 0.00 0.00 0.00 0.00 0.00 0.00 0.00 0.00 0.00 0.00 0.00 0.00 0.00 0.00 0.00 0.00 0.00 0.00 0.00 0.00 0.00 0.00 0.00 0.00 0.00 0.00 0.00 0.00 0.00 0.00
0.00 0.00 0.00 0.00 0.00 0.00 0.00 0.00 0.00 0.00 0.00 0.00 0.00 0.00 0.00 0.00 0.00 0.00 0.00 0.00 0.00 0.00 0.00 0.00 0.00 0.00 0.00 0.00 0.00 0.00 0.00 0.00 0.00 0.00 0.00 0.00 0.00 0.00 0.00 0.00 0.00 0.00 0.00
0.00 0.00 0.00 0.00 0.00 0.00 0.00 0.00 0.00 0.00 0.00 0.00 0.00 0.00 0.00 0.00 0.00 0.00 0.00 0.00 0.00 0.00 0.00 0.00 0.00 0.00 0.00 0.00 0.00 0.00 0.00 0.00 0.00 0.00 0.00 0.00 0.00 0.00 0.00 0.00 0.00 0.00 0.00
0.00 0.00 0.00 0.00 0.00 0.00 0.00 0.00 0.00 0.00 0.00 0.00 0.00 0.00 0.00 0.00 0.00 0.00 0.00 0.00 0.00 0.00 0.00 0.00 0.00 0.00 0.00 0.00 0.00 0.00 0.00 0.00 0.00 0.00 0.00 0.01 0.01 0.02 0.01 0.01 0.00 0.00 0.00
MSLP
1014.95 1014.97 1015.02 1015.10 1015.19 1015.28 1015.36 1015.42 1015.47 1015.49 1015.48 1015.42 1015.33 1015.18 1015.00 1014.77 1014.53 1014.28 1014.06 1013.87 1013.75 1013.70 1013.72 1013.81 1013.95 1014.12 1014.31 1014.50 1014.67 1014.81 1014.92 1015.00 1015.06 1015.10 1015.13 1015.14 1015.16 1015.17 1015.17 1015.19 1015.21 1015.24 1015.28
1015.13 1015.15 1015.20 1015.28 1015.37 1015.46 1015.55 1015.61 1015.66 1015.67 1015.65 1015.59 1015.49 1015.33 1015.14 1014.91 1014.67 1014.42 1014.19 1014.00 1013.86 1013.78 1013.76 1013.79 1013.87 1013.99 1014.12 1014.27 1014.41 1014.55 1014.67 1014.78 1014.88 1014.97 1015.04 1015.10 1015.13 1015.14 1015.14 1015.11 1015.08 1015.04 1015.01
1015.37 1015.39 1015.44 1015.51 1015.58 1015.66 1015.73 1015.78 1015.81 1015.81 1015.79 1015.73 1015.63 1015.49 1015.31 1015.11 1014.89 1014.67 1014.46 1014.28 1014.13 1014.04 1013.98 1013.97 1014.00 1014.06 1014.14 1014.24 1014.35 1014.46 1014.58 1014.71 1014.83 1014.94 1015.04 1015.11 1015.16 1015.17 1015.14 1015.09 1015.01 1014.91 1014.81
1015.65 1015.68 1015.72 1015.77 1015.82 1015.86 1015.89 1015.92 1015.93 1015.92 1015.90 1015.86 1015.78 1015.68 1015.54 1015.38 1015.21 1015.02 1014.85 1014.69 1014.56 1014.45 1014.38 1014.34 1014.32 1014.33 1014.36 1014.41 1014.48 1014.57 1014.67 1014.78 1014.89 1015.01 1015.11 1015.19 1015.23 1015.23 1015.19 1015.11 1014.99 1014.86 1014.71
1015.98 1016.01 1016.04 1016.06 1016.07 1016.07 1016.06 1016.05 1016.04 1016.03 1016.02 1016.00 1015.96 1015.90 1015.82 1015.72 1015.60 1015.47 1015.33 1015.20 1015.08 1014.98 1014.90 1014.83 1014.79 1014.76 1014.75 1014.75 1014.78 1014.83 1014.89 1014.97 1015.07 1015.16 1015.24 1015.31 1015.33 1015.32 1015.27 1015.17 1015.03 1014.87 1014.69
1016.33 1016.36 1016.37 1016.36 1016.32 1016.27 1016.22 1016.18 1016.16 1016.16 1016.17 1016.18 1016.19 1016.18 1016.16 1016.11 1016.04 1015.95 1015.85 1015.75 1015.65 1015.55 1015.47 1015.39 1015.33 1015.27 1015.23 1015.20 1015.19 1015.19 1015.21 1015.25 1015.30 1015.36 1015.41 1015.44 1015.45 1015.42 1015.35 1015.24 1015.10 1014.93 1014.74
1016.67 1016.70 1016.69 1016.64 1016.57 1016.48 1016.40 1016.34 1016.31 1016.32 1016.35 1016.40 1016.46 1016.50 1016.52 1016.52 1016.49 1016.43 1016.36 1016.27 1016.19 1016.10 1016.02 1015.94 1015.87 1015.80 1015.74 1015.69 1015.64 1015.60 1015.58 1015.57 1015.56 1015.57 1015.57 1015.57 1015.55 1015.50 1015.43 1015.33 1015.20 1015.04 1014.86
1016.98 1017.01 1016.97 1016.90 1016.79 1016.67 1016.57 1016.51 1016.49 1016.51 1016.57 1016.65 1016.74 1016.82 1016.87 1016.90 1016.89 1016.85 1016.78 1016.71 1016.63 1016.56 1016.49 1016.42 1016.36 1016.29 1016.23 1016.16 1016.09 1016.02 1015.95 1015.89 1015.83 1015.79 1015.74 1015.70 1015.65 1015.59 1015.52 1015.42 1015.31 1015.18 1015.03
1017.24 1017.25 1017.20 1017.10 1016.97 1016.85 1016.74 1016.68 1016.67 1016.72 1016.80 1016.90 1017.01 1017.10 1017.17 1017.19 1017.18 1017.14 1017.09 1017.01 1016.95 1016.89 1016.83 1016.79 1016.74 1016.70 1016.65 1016.58 1016.50 1016.41 1016.31 1016.21 1016.11 1016.01 1015.93 1015.85 1015.77 1015.70 1015.63 1015.55 1015.47 1015.37 1015.25
1017.43 1017.42 1017.35 1017.24 1017.10 1016.98 1016.89 1016.84 1016.85 1016.91 1017.00 1017.12 1017.23 1017.31 1017.37 1017.38 1017.36 1017.31 1017.24 1017.17 1017.12 1017.08 1017.05 1017.04 1017.03 1017.01 1016.98 1016.93 1016.85 1016.76 1016.64 1016.51 1016.38 1016.25 1016.14 1016.03 1015.94 1015.87 1015.80 1015.73 1015.67 1015.60 1015.51
1017.55 1017.51 1017.43 1017.31 1017.18 1017.07 1017.00 1016.97 1017.00 1017.07 1017.17 1017.27 1017.37 1017.43 1017.46 1017.45 1017.40 1017.33 1017.26 1017.20 1017.16 1017.15 1017.15 1017.18 1017.21 1017.23 1017.23 1017.21 1017.15 1017.05 1016.93 1016.80 1016.65 1016.51 1016.38 1016.26 1016.17 1016.09 1016.03 1015.97 1015.92 1015.87 1015.81
1017.60 1017.54 1017.45 1017.33 1017.22 1017.13 1017.08 1017.07 1017.11 1017.18 1017.27 1017.36 1017.43 1017.46 1017.45 1017.41 1017.34 1017.27 1017.20 1017.14 1017.13 1017.14 1017.18 1017.25 1017.32 1017.37 1017.41 1017.40 1017.36 1017.28 1017.17 1017.04 1016.90 1016.76 1016.63 1016.52 1016.43 1016.36 1016.30 1016.25 1016.21 1016.17 1016.11
1017.61 1017.53 1017.44 1017.33 1017.24 1017.17 1017.15 1017.16 1017.20 1017.27 1017.34 1017.40 1017.43 1017.43 1017.39 1017.32 1017.24 1017.16 1017.09 1017.06 1017.06 1017.10 1017.18 1017.27 1017.37 1017.45 1017.50 1017.51 1017.48 1017.41 1017.32 1017.20 1017.07 1016.95 1016.84 1016.75 1016.68 1016.62 1016.58 1016.55 1016.51 1016.46 1016.39
1017.61 1017.52 1017.43 1017.34 1017.27 1017.23 1017.23 1017.25 1017.29 1017.35 1017.40 1017.43 1017.43 1017.39 1017.33 1017.24 1017.15 1017.07 1017.02 1017.00 1017.02 1017.09 1017.18 1017.29 1017.39 1017.47 1017.52 1017.53 1017.49 1017.42 1017.33 1017.22 1017.12 1017.02 1016.95 1016.89 1016.86 1016.83 1016.81 1016.79 1016.76 1016.71 1016.63
1017.62 1017.53 1017.45 1017.39 1017.35 1017.34 1017.35 1017.39 1017.43 1017.47 1017.49 1017.49 1017.46 1017.40 1017.32 1017.22 1017.14 1017.07 1017.03 1017.03 1017.06 1017.13 1017.22 1017.31 1017.39 1017.45 1017.46 1017.44 1017.38 1017.29 1017.19 1017.09 1017.01 1016.94 1016.91 1016.90 1016.90 1016.92 1016.94 1016.94 1016.92 1016.88 1016.80
1017.67 1017.60 1017.54 1017.51 1017.51 1017.52 1017.55 1017.59 1017.63 1017.65 1017.65 1017.63 1017.58 1017.50 1017.41 1017.32 1017.24 1017.19 1017.16 1017.17 1017.21 1017.26 1017.32 1017.37 1017.40 1017.39 1017.34 1017.26 1017.15 1017.02 1016.90 1016.80 1016.72 1016.69 1016.69 1016.72 1016.78 1016.85 1016.91 1016.96 1016.97 1016.94 1016.88
1017.75 1017.71 1017.70 1017.71 1017.74 1017.78 1017.83 1017.88 1017.90 1017.92 1017.90 1017.86 1017.79 1017.71 1017.62 1017.54 1017.48 1017.44 1017.42 1017.43 1017.45 1017.47 1017.48 1017.46 1017.41 1017.32 1017.19 1017.03 1016.85 1016.67 1016.51 1016.38 1016.31 1016.29 1016.32 1016.40 1016.51 1016.63 1016.74 1016.83 1016.89 1016.91 1016.88
1017.86 1017.88 1017.91 1017.97 1018.04 1018.11 1018.17 1018.22 1018.25 1018.25 1018.22 1018.17 1018.10 1018.02 1017.94 1017.87 1017.82 1017.79 1017.78 1017.77 1017.77 1017.75 1017.69 1017.60 1017.46 1017.27 1017.05 1016.79 1016.53 1016.29 1016.08 1015.93 1015.84 1015.82 1015.87 1015.98 1016.13 1016.29 1016.46 1016.60 1016.71 1016.78 1016.80
1017.99 1018.06 1018.16 1018.26 1018.37 1018.47 1018.54 1018.60 1018.62 1018.61 1018.57 1018.52 1018.45 1018.37 1018.31 1018.26 1018.22 1018.20 1018.18 1018.17 1018.13 1018.06 1017.94 1017.77 1017.55 1017.27 1016.96 1016.62 1016.29 1015.98 1015.72 1015.53 1015.41 1015.38 1015.43 1015.55 1015.72 1015.91 1016.11 1016.30 1016.46 1016.58 1016.66
1018.10 1018.24 1018.39 1018.54 1018.68 1018.80 1018.89 1018.95 1018.96 1018.95 1018.91 1018.85 1018.79 1018.73 1018.67 1018.64 1018.61 1018.60 1018.58 1018.54 1018.48 1018.37 1018.20 1017.97 1017.68 1017.33 1016.95 1016.55 1016.16 1015.80 1015.50 1015.27 1015.13 1015.07 1015.10 1015.20 1015.36 1015.56 1015.77 1015.98 1016.18 1016.35 1016.48
1018.18 1018.38 1018.58 1018.77 1018.93 1019.07 1019.16 1019.21 1019.23 1019.21 1019.17 1019.11 1019.05 1019.00 1018.96 1018.94 1018.93 1018.91 1018.89 1018.85 1018.77 1018.63 1018.43 1018.17 1017.84 1017.46 1017.05 1016.62 1016.20 1015.81 1015.48 1015.22 1015.04 1014.95 1014.94 1015.01 1015.13 1015.30 1015.50 1015.70 1015.91 1016.10 1016.28
1018.21 1018.45 1018.68 1018.89 1019.07 1019.21 1019.31 1019.36 1019.37 1019.34 1019.30 1019.25 1019.19 1019.15 1019.12 1019.11 1019.11 1019.10 1019.09 1019.04 1018.95 1018.81 1018.61 1018.34 1018.01 1017.64 1017.23 1016.81 1016.39 1016.00 1015.66 1015.38 1015.18 1015.04 1014.98 1014.99 1015.06 1015.17 1015.32 1015.49 1015.68 1015.87 1016.06
1018.15 1018.42 1018.67 1018.89 1019.08 1019.21 1019.30 1019.34 1019.34 1019.31 1019.27 1019.22 1019.17 1019.14 1019.12 1019.12 1019.13 1019.13 1019.12 1019.08 1019.00 1018.87 1018.69 1018.44 1018.15 1017.81 1017.45 1017.06 1016.69 1016.33 1016.00 1015.72 1015.49 1015.32 1015.21 1015.15 1015.14 1015.18 1015.25 1015.36 1015.50 1015.66 1015.83
1018.01 1018.29 1018.54 1018.76 1018.93 1019.05 1019.13 1019.16 1019.16 1019.13 1019.08 1019.04 1019.00 1018.97 1018.97 1018.97 1018.98 1018.99 1018.99 1018.96 1018.90 1018.79 1018.64 1018.45 1018.21 1017.93 1017.63 1017.32 1017.00 1016.69 1016.40 1016.14 1015.90 1015.70 1015.54 1015.41 1015.33 1015.28 1015.27 1015.30 1015.36 1015.47 1015.60
1017.77 1018.04 1018.28 1018.49 1018.65 1018.76 1018.82 1018.84 1018.83 1018.80 1018.76 1018.72 1018.69 1018.67 1018.67 1018.68 1018.70 1018.71 1018.71 1018.70 1018.65 1018.58 1018.47 1018.32 1018.14 1017.94 1017.72 1017.49 1017.25 1017.00 1016.76 1016.53 1016.30 1016.09 1015.89 1015.70 1015.55 1015.42 1015.32 1015.27 1015.26 1015.30 1015.37
1017.42 1017.68 1017.91 1018.10 1018.24 1018.34 1018.39 1018.41 1018.40 1018.37 1018.34 1018.31 1018.29 1018.28 1018.28 1018.29 1018.31 1018.33 1018.33 1018.32 1018.29 1018.23 1018.16 1018.06 1017.94 1017.81 1017.66 1017.50 1017.34 1017.17 1016.98 1016.79 1016.59 1016.38 1016.16 1015.94 1015.73 1015.54 1015.38 1015.25 1015.17 1015.13 1015.15
Thickness
5671 5671 5671 5672 5674 5673 5672 5673 5673 5674 5674 5675 5675 5677 5678 5680 5682 5685 5689 5693 5697 5699 5699 5699 5698 5699 5696 5694 5693 5692 5690 5688 5682 5681 5684 5688 5689 5689 5689 5687 5685 5684 5685
5661 5661 5661 5661 5662 5662 5663 5665 5665 5664 5664 5663 5664 5665 5667 5669 5671 5675 5679 5684 5688 5691 5692 5693 5694 5695 5693 5691 5689 5688 5688 5687 5683 5678 5679 5683 5685 5687 5687 5686 5685 5686 5687
5651 5650 5650 5650 5651 5652 5654 5656 5656 5655 5654 5653 5653 5654 5657 5659 5661 5664 5669 5673 5677 5681 5683 5684 5685 5687 5686 5685 5684 5683 5683 5684 5682 5678 5677 5679 5681 5684 5684 5685 5685 5685 5687
5640 5639 5639 5640 5642 5643 5645 5646 5647 5646 5645 5644 5644 5644 5647 5650 5653 5655 5659 5662 5666 5669 5671 5673 5675 5677 5678 5678 5677 5677 5678 5677 5676 5674 5672 5674 5676 5680 5681 5680 5681 5684 5686
5628 5628 5629 5631 5633 5634 5636 5636 5637 5636 5636 5635 5635 5635 5638 5641 5643 5646 5649 5652 5655 5657 5660 5662 5664 5667 5670 5670 5670 5670 5672 5672 5671 5668 5667 5668 5670 5672 5674 5676 5677 5680 5685
5617 5618 5620 5621 5622 5624 5626 5626 5626 5626 5625 5625 5624 5624 5626 5630 5633 5637 5640 5643 5646 5648 5649 5651 5653 5657 5661 5662 5662 5664 5666 5667 5666 5665 5664 5664 5665 5666 5668 5670 5672 5672 5673
5604 5607 5608 5609 5611 5612 5615 5616 5617 5618 5617 5616 5615 5615 5617 5621 5625 5628 5630 5631 5634 5636 5638 5640 5642 5645 5648 5652 5653 5655 5657 5659 5662 5661 5659 5658 5660 5661 5662 5664 5666 5665 5667
5591 5593 5596 5597 5599 5601 5603 5605 5608 5609 5608 5607 5606 5608 5610 5613 5616 5618 5621 5621 5623 5626 5627 5629 5630 5633 5637 5640 5643 5645 5647 5650 5652 5653 5653 5654 5656 5658 5659 5658 5658 5660 5663
5577 5579 5582 5585 5587 5588 5590 5594 5597 5597 5598 5598 5599 5599 5601 5603 5607 5610 5612 5612 5613 5615 5616 5618 5621 5623 5626 5628 5631 5634 5637 5639 5643 5645 5646 5647 5650 5653 5655 5656 5655 5654 5653
5566 5568 5571 5573 5576 5579 5581 5584 5587 5588 5589 5590 5590 5591 5592 5594 5597 5600 5603 5604 5604 5606 5607 5608 5611 5613 5615 5617 5618 5621 5623 5626 5630 5634 5636 5637 5639 5642 5646 5648 5647 5645 5645
5559 5561 5564 5566 5569 5572 5573 5575 5578 5578 5578 5579 5581 5582 5584 5586 5588 5591 5594 5594 5595 5596 5597 5597 5599 5602 5605 5606 5607 5609 5611 5614 5618 5621 5623 5626 5629 5632 5635 5637 5638 5639 5639
5553 5556 5558 5560 5563 5565 5565 5566 5567 5567 5567 5568 5569 5571 5575 5577 5578 5580 5584 5586 5585 5584 5585 5586 5588 5592 5595 5597 5599 5601 5602 5604 5606 5609 5611 5614 5618 5622 5625 5628 5629 5631 5633
5549 5550 5551 5553 5554 5555 5556 5556 5556 5556 5557 5557 5558 5559 5562 5566 5568 5569 5571 5574 5575 5574 5575 5576 5578 5580 5584 5587 5590 5593 5594 5594 5595 5597 5599 5603 5608 5612 5616 5619 5621 5622 5624
5544 5544 5544 5545 5546 5546 5548 5549 5549 5549 5549 5550 5549 5550 5552 5554 5557 5558 5560 5561 5563 5564 5565 5568 5570 5571 5574 5577 5581 5584 5585 5586 5586 5587 5589 5593 5598 5602 5604 5606 5607 5607 5609
5537 5538 5540 5540 5539 5539 5539 5539 5540 5541 5543 5543 5542 5541 5542 5545 5547 5551 5550 5551 5551 5552 5554 5557 5559 5559 5561 5564 5569 5573 5575 5577 5578 5580 5581 5584 5587 5590 5592 5593 5593 5594 5595
5529 5530 5532 5533 5533 5531 5528 5528 5530 5531 5532 5533 5534 5533 5533 5535 5537 5540 5541 5542 5541 5542 5543 5544 5546 5547 5547 5549 5553 5559 5564 5568 5570 5571 5572 5573 5575 5578 5580 5580 5581 5581 5583
5519 5519 5520 5521 5521 5519 5518 5518 5518 5519 5519 5520 5521 5523 5524 5526 5526 5527 5528 5529 5530 5530 5530 5531 5533 5535 5537 5539 5541 5545 5551 5557 5561 5562 5562 5563 5564 5566 5567 5568 5568 5569 5570
5510 5510 5510 5509 5509 5507 5506 5505 5504 5504 5504 5505 5507 5508 5510 5511 5512 5512 5512 5513 5514 5515 5515 5518 5521 5524 5526 5528 5530 5534 5540 5544 5548 5550 5551 5552 5554 5555 5554 5554 5555 5556 5557
5500 5498 5498 5498 5497 5495 5493 5491 5490 5490 5490 5490 5491 5493 5495 5496 5496 5496 5496 5494 5496 5498 5501 5504 5507 5511 5515 5519 5522 5526 5529 5533 5535 5538 5539 5539 5540 5541 5542 5542 5542 5544 5544
5489 5489 5485 5481 5480 5478 5476 5476 5475 5475 5476 5476 5476 5477 5479 5479 5478 5477 5478 5478 5478 5480 5483 5488 5492 5497 5502 5507 5512 5516 5519 5521 5523 5524 5527 5528 5528 5529 5531 5531 5530 5530 5529
5480 5478 5476 5470 5466 5464 5462 5461 5460 5460 5460 5459 5459 5460 5463 5460 5459 5459 5460 5461 5462 5463 5465 5470 5475 5480 5486 5492 5496 5501 5505 5508 5510 5512 5514 5515 5516 5517 5519 5519 5519 5517 5517
5471 5467 5463 5459 5456 5454 5452 5450 5448 5447 5447 5445 5443 5443 5443 5442 5442 5442 5443 5444 5445 5446 5447 5450 5455 5460 5465 5470 5476 5481 5485 5488 5492 5496 5498 5500 5502 5504 5504 5504 5504 5503 5503
5465 5461 5456 5452 5448 5445 5442 5438 5436 5433 5431 5429 5428 5426 5425 5424 5424 5425 5426 5427 5429 5430 5431 5433 5435 5439 5445 5450 5454 5458 5460 5465 5471 5477 5481 5483 5484 5486 5488 5489 5490 5489 5489
5460 5455 5449 5444 5439 5435 5431 5427 5423 5420 5416 5414 5412 5410 5409 5408 5409 5410 5411 5412 5414 5415 5417 5418 5419 5421 5425 5430 5434 5438 5441 5445 5450 5455 5460 5464 5465 5466 5468 5470 5472 5474 5474
5454 5447 5440 5434 5429 5425 5421 5416 5412 5408 5405 5401 5398 5396 5395 5395 5396 5397 5398 5399 5400 5400 5401 5402 5403 5404 5407 5411 5415 5420 5424 5428 5431 5435 5440 5444 5447 5448 5447 5448 5450 5454 5456
5447 5440 5433 5426 5420 5415 5409 5404 5399 5396 5392 5389 5386 5384 5384 5384 5384 5385 5385 5385 5385 5385 5385 5386 5386 5388 5390 5393 5397 5401 5405 5409 5413 5417 5421 5424 5428 5430 5431 5431 5432 5433 5436